Temperature
11 11 11 11 11 10 10 10 10 11 10 10 10 10 10 10 10 10 10 10 10 10 10 9 9 9 9 9 9 9 9 9 9 9 9 9 9 9 9 9 9 9 9
10 10 10 10 10 10 10 10 10 10 10 10 10 9 9 9 9 9 9 9 9 9 9 9 9 9 9 9 9 9 9 9 9 9 9 8 8 8 8 8 8 8 8
10 10 10 10 10 10 9 9 9 9 9 9 9 9 9 9 9 9 9 9 9 9 9 9 9 9 8 8 8 8 8 8 8 8 8 8 8 8 8 8 8 8 7
9 9 9 9 9 9 9 9 9 9 9 9 9 9 9 9 8 8 8 8 8 8 9 9 8 8 8 8 8 8 8 8 8 8 8 8 7 7 7 7 7 7 7
9 8 8 8 8 8 8 8 8 8 8 8 8 8 8 8 8 8 8 8 8 8 8 8 8 8 8 8 8 7 7 7 7 7 7 7 7 7 7 7 7 6 6
8 8 8 8 8 8 8 8 8 8 7 7 7 8 8 8 8 8 8 8 8 8 8 8 8 7 7 7 7 7 7 7 7 7 7 7 7 6 6 6 6 6 6
7 7 7 7 7 7 7 7 7 7 7 7 7 7 7 7 7 7 7 7 7 7 7 7 7 7 7 7 7 7 6 6 6 6 6 6 6 6 6 6 6 6 6
7 7 7 7 7 7 7 7 7 7 6 6 6 6 6 7 7 7 7 7 7 7 7 7 7 7 7 7 6 6 6 6 6 6 6 5 5 5 5 5 5 5 5
6 6 6 6 6 6 6 6 6 6 6 6 6 6 6 6 6 6 7 7 6 6 6 6 6 6 6 6 6 6 6 6 5 5 5 5 5 5 5 5 5 5 5
6 6 6 6 6 6 6 6 6 5 5 5 5 5 5 5 5 5 6 6 6 6 6 6 6 6 6 6 5 5 5 5 5 5 5 5 5 5 4 4 5 5 5
6 6 5 5 5 5 5 5 5 5 5 5 5 5 5 5 4 4 5 5 5 5 5 5 5 5 5 5 5 5 5 5 5 5 5 5 5 4 4 4 5 5 4
5 5 5 5 5 5 5 5 5 4 4 4 4 4 4 4 4 4 4 4 5 5 5 5 5 5 5 4 4 4 4 4 4 4 4 4 4 4 4 4 4 4 4
5 5 5 5 4 4 4 4 4 4 4 4 4 4 4 4 4 4 4 4 4 4 4 5 4 4 4 4 4 4 4 4 4 4 4 4 4 4 4 4 3 4 4
5 5 4 4 4 4 4 4 4 4 3 3 3 3 4 3 3 3 3 3 3 3 4 4 4 4 4 4 4 4 4 3 3 3 3 3 3 3 3 3 3 3 3
4 4 4 4 4 3 3 3 3 3 3 3 3 3 3 3 3 3 3 3 2 2 2 3 3 3 3 3 3 3 3 3 3 3 3 3 3 3 3 3 3 2 2
4 4 4 3 3 3 3 3 3 3 2 2 2 3 3 3 3 3 2 2 2 2 2 2 3 3 3 3 2 2 3 3 2 2 2 2 2 2 2 2 2 2 2
3 3 3 3 3 3 3 2 2 2 2 2 2 2 2 2 2 2 2 2 2 2 2 2 2 2 2 2 2 2 2 2 2 2 2 2 2 2 2 2 2 2 2
3 3 3 3 2 2 2 2 2 2 2 2 2 2 2 1 1 1 1 1 1 1 1 1 2 2 2 2 1 2 2 2 2 2 2 2 1 1 1 1 1 1 1
3 2 2 2 2 2 2 1 1 1 1 1 1 1 1 1 1 1 1 1 1 1 1 1 1 1 1 1 1 1 1 1 1 1 1 1 1 1 1 1 1 1 1
2 2 2 2 2 1 1 1 1 1 1 1 1 1 1 0 1 1 0 0 0 0 0 0 0 0 0 0 0 1 1 1 1 1 1 1 1 0 0 0 0 0 0
2 2 1 1 1 1 1 1 1 1 0 0 0 0 0 0 0 -0 -0 0 0 0 0 -0 -0 -0 0 0 0 -0 -0 0 0 0 0 0 0 0 0 -0 -0 -0 -0
1 1 1 1 1 0 0 0 0 0 0 0 0 -0 -0 -0 -0 -0 -1 -0 -0 -0 -0 -0 -0 -0 -0 -0 -0 -1 -1 -1 -1 -0 -0 -0 -0 -0 -0 -1 -1 -1 -1
1 1 0 0 0 -0 -0 -0 -0 -0 -0 -0 -0 -1 -1 -1 -1 -1 -1 -1 -1 -1 -1 -1 -1 -1 -1 -1 -1 -1 -1 -1 -1 -1 -1 -1 -1 -1 -1 -1 -1 -1 -2
0 0 -0 -0 -0 -0 -1 -0 -0 -1 -1 -1 -1 -1 -1 -1 -1 -1 -1 -1 -1 -1 -1 -1 -1 -1 -1 -1 -1 -1 -2 -2 -1 -1 -2 -2 -2 -2 -1 -2 -2 -2 -2
-0 -0 -1 -1 -1 -1 -1 -1 -1 -1 -1 -1 -1 -1 -2 -2 -1 -2 -2 -2 -1 -1 -1 -1 -1 -1 -1 -1 -2 -2 -2 -2 -2 -2 -2 -3 -2 -2 -2 -2 -2 -3 -3
-0 -1 -1 -1 -1 -1 -1 -1 -1 -1 -2 -2 -2 -2 -2 -2 -2 -2 -2 -2 -2 -2 -2 -1 -2 -2 -2 -2 -2 -2 -2 -3 -3 -3 -3 -3 -3 -3 -4 -3 -3 -3 -3
Wind_Speed
2 3 3 3 3 4 4 4 4 4 4 4 3 4 4 4 4 4 5 6 6 6 5 4 4 5 5 4 4 3 2 1 1 2 2 3 3 3 4 4 5 5 6
2 2 2 2 3 2 2 2 2 2 3 3 3 3 3 3 3 4 5 5 5 5 5 5 5 4 4 5 4 4 4 3 3 3 3 3 4 4 4 4 5 6 6
2 2 1 1 2 2 2 3 3 3 2 3 3 2 2 2 3 3 4 4 4 5 5 5 5 4 4 4 4 4 4 4 4 4 4 3 4 4 5 5 6 6 7
1 2 1 1 1 2 2 2 2 2 2 2 2 2 2 2 2 2 3 3 4 4 4 5 5 5 4 4 5 5 5 4 5 4 4 4 4 4 5 5 6 7 7
1 2 1 1 1 2 2 1 1 1 1 2 2 2 2 2 2 1 1 2 2 3 3 4 5 5 5 5 5 5 5 5 5 5 4 4 5 5 5 5 6 7 7
1 2 1 1 1 1 1 1 0 1 0 1 2 2 2 2 1 1 1 1 1 2 2 3 3 4 5 5 5 5 6 5 5 5 5 5 5 5 6 6 6 7 7
1 2 1 1 2 1 1 1 0 1 1 1 1 2 2 2 1 1 1 1 1 1 1 2 2 3 4 5 5 6 6 6 6 6 6 5 5 5 6 7 7 7 8
2 2 2 2 2 1 0 1 1 0 1 1 0 1 2 3 2 1 1 1 1 2 1 1 1 2 2 3 5 5 6 6 6 6 7 7 6 6 7 7 7 8 8
3 2 3 3 2 2 2 2 2 2 2 1 0 1 1 2 2 2 1 1 1 1 1 1 1 1 1 2 4 5 6 7 8 7 7 8 8 8 7 7 8 8 9
3 3 3 3 3 3 3 2 2 2 3 2 1 1 1 2 1 2 2 2 2 2 2 2 2 2 2 2 4 5 6 7 8 8 8 8 9 9 9 8 9 9 10
2 3 3 3 3 3 3 3 2 2 3 3 3 2 1 1 2 2 3 3 3 2 2 2 2 2 3 3 4 5 6 7 8 8 9 9 9 9 9 9 9 9 10
2 2 3 3 3 3 3 3 4 3 3 3 3 2 2 2 2 2 3 3 3 3 3 2 3 3 3 4 5 6 6 7 8 8 9 9 10 10 10 10 10 10 10
3 4 3 3 3 3 4 4 4 4 4 4 4 4 3 3 2 2 2 2 2 2 2 2 3 3 3 4 5 6 6 7 8 8 9 9 9 9 10 10 11 11 11
4 4 4 3 3 4 4 3 3 4 4 5 5 4 3 3 3 3 3 2 2 2 2 3 2 3 3 4 6 6 6 7 8 8 9 9 9 9 9 10 10 11 12
4 4 4 4 3 4 4 4 4 4 4 5 5 4 4 3 3 3 3 3 3 3 4 3 2 2 4 4 6 6 7 8 9 9 9 9 8 8 9 9 9 10 11
4 4 4 4 4 4 4 4 4 4 4 4 3 4 4 3 3 3 3 3 4 4 4 3 3 3 4 5 7 7 8 8 9 9 9 9 8 8 9 9 9 10 11
4 5 5 5 5 4 5 5 5 4 5 4 4 4 5 4 3 3 3 3 3 4 5 4 3 3 3 4 6 7 8 7 8 8 9 9 9 9 9 9 9 10 10
4 5 4 5 5 5 5 6 6 5 5 6 6 5 5 4 4 3 3 4 4 4 4 5 4 3 3 3 4 5 6 6 6 8 8 8 8 9 9 9 9 9 9
4 4 4 5 5 5 5 6 6 6 6 6 6 6 6 5 5 4 4 4 4 4 4 4 5 3 3 2 3 4 5 4 5 7 7 7 7 8 9 9 9 8 8
4 4 5 5 5 5 6 6 6 6 6 6 6 6 6 6 6 6 5 5 4 4 3 4 4 4 3 2 2 3 4 3 4 5 5 6 7 8 7 8 8 7 7
4 4 5 5 5 5 5 6 6 6 6 5 5 6 6 6 7 6 5 4 4 4 3 4 4 3 3 2 3 2 4 4 4 2 2 4 5 5 5 7 7 7 7
3 3 4 5 5 5 6 8 6 5 5 5 5 5 5 6 7 8 9 7 6 5 5 4 4 4 5 4 3 3 3 3 3 1 2 4 2 3 4 5 7 7 7
3 4 4 4 5 6 7 7 7 5 5 5 5 5 5 5 5 5 6 7 7 8 7 6 6 6 5 4 3 3 3 3 4 3 2 3 2 3 5 6 7 6 6
4 4 4 4 4 5 7 7 6 5 5 5 5 6 5 5 5 5 5 5 5 6 7 6 6 6 5 4 4 4 4 2 2 2 1 2 2 3 4 6 6 5 5
4 4 4 4 4 5 6 6 5 4 4 5 5 5 5 5 7 6 5 5 5 5 6 7 7 6 6 5 3 2 1 1 2 2 1 1 2 3 3 2 4 5 6
4 3 4 4 4 5 6 5 4 3 3 3 3 4 6 6 7 6 5 5 6 5 3 3 3 4 4 3 3 3 3 3 2 2 1 1 1 2 2 2 2 4 5
Wind_Direction
78 64 62 61 57 59 62 55 52 49 49 53 55 56 55 52 46 40 29 27 29 35 37 36 33 29 35 46 43 31 16 12 15 29 29 29 20 14 10 5 4 4 357
99 85 75 62 55 61 71 77 59 56 50 52 47 47 47 48 46 44 34 23 22 29 33 30 21 15 18 28 31 19 7 5 11 11 15 20 17 12 2 353 353 354 349
102 100 94 74 47 53 75 80 65 63 54 40 21 29 40 46 47 49 44 29 18 19 26 24 14 3 1 9 10 7 8 4 360 356 355 359 358 357 355 353 348 345 339
113 109 103 72 32 70 85 96 74 43 29 16 0 359 13 28 30 34 47 41 30 21 15 16 6 360 354 357 357 355 350 349 350 348 345 341 340 340 337 338 337 338 338
134 127 128 111 95 87 89 97 54 37 16 0 342 339 345 340 340 8 49 49 37 23 13 0 354 353 354 354 353 348 342 334 336 344 341 331 326 329 328 326 324 328 331
139 131 128 115 111 108 76 84 81 29 4 333 340 335 320 310 326 330 306 26 19 6 9 360 353 346 354 357 355 345 336 328 335 333 333 324 315 317 316 318 321 324 326
155 141 151 143 137 165 205 173 124 54 354 347 353 333 320 300 290 294 304 346 352 343 5 356 358 1 353 358 357 348 340 333 331 330 328 318 310 312 313 317 319 322 322
183 178 174 187 175 175 184 192 168 174 329 6 108 357 323 322 326 312 301 272 304 345 359 339 355 357 356 350 345 341 332 326 322 320 321 321 318 314 314 314 315 315 316
199 194 196 190 185 187 205 213 197 188 219 266 268 169 185 250 309 309 290 293 297 314 313 313 323 326 330 342 335 330 326 322 320 319 318 318 316 312 309 313 311 313 313
208 208 205 201 195 192 203 217 214 210 193 217 246 258 225 204 217 297 306 308 306 296 283 294 300 306 317 332 328 320 319 317 315 316 314 315 313 310 307 308 309 309 310
218 213 208 201 203 200 203 207 215 216 208 209 209 218 229 255 222 217 274 300 312 289 274 270 266 280 298 312 313 309 311 310 308 308 310 312 314 313 309 310 309 306 306
248 229 209 203 208 209 210 212 213 213 216 215 215 210 202 204 215 208 239 275 288 290 290 276 255 259 276 301 304 307 307 308 308 309 310 312 310 311 312 310 310 309 306
248 242 226 216 216 216 211 207 212 224 218 213 217 223 221 223 217 217 226 254 272 293 296 284 265 263 277 300 305 310 310 312 311 311 309 309 309 311 310 309 308 308 305
236 229 220 216 217 214 214 209 218 228 222 221 225 221 225 225 214 219 214 217 274 283 273 270 276 258 281 297 304 312 308 307 305 305 306 306 307 308 308 308 309 307 307
232 216 213 217 219 215 210 210 230 233 227 225 227 225 227 227 218 229 224 215 214 255 267 252 253 275 290 294 301 303 300 297 300 301 302 303 304 305 305 306 306 305 304
227 222 222 222 224 222 215 217 233 230 225 232 233 229 230 230 226 222 225 230 224 227 253 252 256 283 295 301 301 302 293 297 297 298 301 302 302 302 301 301 302 302 301
223 221 224 224 226 230 224 223 231 227 227 237 238 233 237 227 223 226 225 228 233 224 250 275 266 275 278 293 304 300 293 291 290 294 300 301 302 300 298 298 301 300 298
230 229 229 228 230 233 225 221 228 227 225 230 234 231 238 234 226 226 224 228 237 232 236 270 280 271 266 273 285 293 299 291 288 289 297 300 302 302 302 300 299 298 295
233 233 229 230 231 232 226 224 225 228 229 230 231 231 233 227 230 229 226 230 236 245 236 251 274 273 272 273 289 296 292 291 300 295 297 297 298 305 306 306 301 303 302
234 235 236 237 234 233 228 226 225 228 232 233 232 232 232 228 231 228 231 233 231 239 243 245 262 273 268 271 272 284 298 298 300 299 299 300 301 305 306 309 306 308 310
246 243 243 247 240 235 231 225 223 223 226 232 235 236 237 238 243 239 238 233 224 230 238 244 253 266 266 268 266 267 288 304 297 275 294 301 304 303 300 303 307 307 308
258 257 253 248 243 244 242 235 230 226 225 227 234 240 242 238 247 249 248 245 234 229 233 238 246 250 254 252 253 262 279 305 300 273 296 299 296 289 297 293 296 303 305
253 255 255 249 247 249 244 240 236 231 227 229 232 238 247 247 247 243 249 251 248 245 238 234 239 243 248 244 236 252 255 263 269 265 290 292 294 292 297 297 303 300 305
254 253 254 250 255 254 246 241 240 236 235 237 238 237 239 246 247 245 240 242 247 249 248 242 240 245 247 243 227 230 237 266 275 266 271 280 291 293 305 298 291 294 309
271 264 257 254 250 258 255 246 243 235 240 247 249 243 238 242 251 251 242 244 252 259 262 257 261 265 262 259 250 215 223 256 285 272 235 255 282 303 299 295 291 307 315
269 269 266 256 246 253 257 251 241 229 237 247 253 253 251 255 259 253 239 241 252 259 258 264 266 271 264 245 238 217 208 228 271 274 235 250 262 318 309 293 305 310 314
Height
1531 1531 1531 1532 1531 1531 1531 1531 1531 1530 1530 1530 1531 1531 1531 1531 1531 1531 1531 1531 1531 1531 1531 1531 1530 1530 1530 1529 1529 1529 1529 1529 1528 1528 1528 1528 1527 1527 1527 1527 1527 1526 1526
1530 1530 1530 1530 1530 1530 1530 1529 1529 1529 1529 1529 1529 1529 1529 1529 1529 1529 1529 1529 1529 1529 1529 1529 1529 1529 1528 1528 1528 1527 1527 1526 1526 1526 1526 1526 1526 1525 1525 1525 1524 1524 1523
1528 1528 1528 1528 1528 1528 1528 1528 1527 1527 1527 1527 1527 1527 1527 1527 1527 1527 1527 1528 1528 1527 1527 1527 1527 1527 1527 1526 1526 1525 1525 1525 1524 1524 1523 1523 1523 1523 1523 1522 1522 1521 1521
1526 1526 1526 1526 1526 1526 1526 1525 1525 1525 1525 1525 1525 1525 1525 1525 1525 1526 1526 1526 1526 1526 1525 1525 1525 1525 1525 1524 1524 1524 1523 1522 1522 1521 1521 1521 1521 1521 1521 1520 1520 1519 1518
1524 1524 1524 1524 1524 1524 1524 1523 1523 1523 1523 1523 1523 1523 1523 1523 1523 1523 1523 1523 1523 1523 1523 1523 1523 1523 1523 1522 1522 1522 1521 1520 1520 1519 1519 1519 1519 1519 1518 1518 1517 1516 1516
1521 1521 1521 1521 1521 1521 1521 1521 1521 1521 1521 1521 1521 1520 1520 1520 1520 1520 1521 1521 1521 1521 1521 1520 1520 1520 1520 1520 1520 1519 1519 1518 1517 1517 1517 1516 1516 1516 1516 1515 1515 1514 1513
1518 1518 1518 1518 1518 1518 1518 1518 1518 1518 1518 1519 1519 1518 1517 1517 1517 1517 1518 1518 1518 1518 1518 1518 1518 1518 1517 1517 1517 1517 1517 1516 1515 1515 1514 1514 1513 1513 1513 1512 1512 1511 1510
1515 1515 1515 1515 1515 1515 1515 1515 1515 1515 1516 1516 1516 1516 1515 1516 1514 1515 1515 1515 1515 1515 1515 1515 1515 1515 1514 1514 1514 1514 1514 1513 1513 1512 1512 1511 1510 1510 1509 1509 1508 1507 1506
1511 1511 1511 1512 1512 1512 1512 1512 1512 1512 1513 1513 1514 1515 1514 1512 1512 1512 1512 1512 1512 1512 1512 1512 1512 1512 1511 1511 1511 1511 1510 1510 1510 1509 1509 1508 1507 1506 1506 1505 1504 1503 1503
1507 1508 1508 1508 1508 1508 1508 1508 1508 1509 1509 1510 1511 1511 1512 1511 1511 1509 1509 1509 1510 1510 1510 1509 1509 1509 1509 1508 1508 1508 1507 1507 1506 1506 1505 1505 1504 1503 1502 1501 1500 1499 1498
1504 1504 1504 1504 1504 1504 1504 1504 1505 1505 1505 1506 1506 1507 1508 1508 1508 1507 1506 1506 1506 1507 1507 1507 1506 1506 1506 1505 1505 1504 1504 1503 1503 1502 1501 1501 1500 1499 1498 1497 1496 1495 1494
1500 1500 1500 1500 1500 1500 1500 1500 1501 1501 1501 1502 1502 1503 1503 1504 1504 1504 1503 1503 1503 1503 1503 1503 1503 1503 1502 1502 1502 1501 1501 1500 1499 1498 1497 1497 1496 1495 1494 1493 1492 1491 1490
1495 1495 1496 1496 1496 1496 1496 1496 1496 1496 1497 1497 1498 1498 1499 1500 1501 1501 1501 1500 1499 1499 1499 1499 1499 1499 1499 1498 1498 1498 1497 1496 1495 1494 1493 1492 1492 1491 1490 1489 1488 1487 1485
1491 1491 1491 1491 1492 1492 1492 1492 1492 1492 1493 1493 1494 1494 1495 1495 1496 1497 1498 1497 1496 1496 1495 1496 1496 1496 1495 1495 1494 1494 1493 1492 1491 1490 1489 1488 1487 1486 1485 1484 1483 1482 1481
1487 1487 1487 1487 1487 1487 1488 1488 1487 1488 1488 1489 1489 1490 1490 1491 1492 1493 1494 1494 1495 1492 1491 1491 1492 1492 1492 1491 1490 1489 1489 1488 1487 1486 1485 1484 1483 1482 1481 1480 1479 1477 1476
1483 1483 1483 1483 1483 1483 1483 1483 1483 1483 1484 1484 1485 1485 1486 1487 1488 1489 1489 1490 1490 1490 1488 1487 1488 1488 1488 1487 1486 1485 1485 1484 1483 1482 1481 1480 1478 1477 1476 1475 1474 1472 1471
1478 1478 1478 1478 1478 1478 1478 1478 1478 1479 1479 1479 1480 1481 1481 1482 1483 1484 1485 1485 1485 1486 1484 1483 1484 1484 1483 1483 1482 1482 1480 1479 1478 1478 1476 1475 1474 1473 1472 1470 1469 1467 1466
1473 1473 1473 1473 1473 1474 1474 1474 1474 1474 1475 1475 1476 1476 1477 1478 1478 1479 1480 1480 1481 1481 1480 1479 1479 1479 1479 1478 1478 1477 1476 1475 1474 1473 1472 1471 1469 1468 1467 1466 1464 1463 1461
1469 1469 1469 1468 1468 1469 1469 1469 1469 1469 1470 1470 1471 1472 1472 1473 1473 1474 1475 1475 1476 1476 1476 1475 1474 1474 1474 1474 1473 1472 1472 1470 1469 1468 1467 1466 1465 1464 1463 1461 1460 1458 1457
1464 1464 1464 1463 1463 1464 1464 1464 1464 1465 1465 1465 1466 1467 1467 1468 1468 1469 1470 1471 1471 1471 1471 1471 1470 1469 1469 1469 1468 1467 1466 1465 1464 1464 1463 1462 1461 1460 1458 1457 1456 1454 1453
1459 1459 1458 1458 1458 1459 1459 1459 1460 1460 1460 1461 1461 1462 1462 1463 1464 1465 1465 1466 1466 1466 1466 1466 1465 1465 1465 1464 1464 1463 1462 1460 1460 1459 1458 1458 1456 1455 1454 1453 1452 1450 1449
1454 1454 1453 1453 1453 1454 1454 1455 1455 1455 1455 1456 1456 1457 1457 1458 1459 1460 1461 1461 1462 1462 1461 1462 1461 1461 1460 1460 1460 1459 1458 1456 1455 1455 1454 1453 1453 1451 1450 1449 1447 1446 1445
1449 1449 1448 1448 1448 1449 1449 1450 1451 1451 1451 1451 1451 1452 1452 1453 1454 1455 1455 1456 1457 1457 1457 1458 1457 1456 1456 1456 1456 1455 1454 1452 1452 1451 1450 1448 1448 1446 1446 1445 1443 1442 1441
1445 1444 1444 1444 1444 1444 1445 1445 1446 1446 1446 1446 1447 1447 1447 1448 1449 1450 1450 1450 1451 1451 1452 1452 1452 1452 1452 1452 1452 1451 1450 1449 1448 1448 1447 1444 1443 1442 1441 1441 1440 1438 1437
1440 1440 1439 1439 1439 1439 1440 1441 1442 1442 1442 1442 1442 1443 1443 1443 1444 1445 1445 1445 1445 1446 1446 1447 1447 1447 1447 1448 1447 1447 1445 1444 1443 1443 1443 1441 1439 1438 1437 1436 1436 1435 1433
1436 1435 1435 1435 1435 1435 1436 1437 1437 1437 1437 1438 1438 1438 1439 1439 1440 1440 1441 1441 1440 1441 1441 1441 1442 1442 1442 1442 1443 1442 1441 1440 1439 1438 1438 1437 1436 1435 1433 1432 1432 1431 1430